Location: Newark
(44.3681°N, 100.3364°W)
Time: 17:34:44
(UTC+00:00)

Explorer 7 - Pass Details

Date: 18 February 2020
Orbit: 485 x 679 km, 50.3° (Epoch: 03 April)

Event Time Altitude Azimuth Distance (km) Brightness Sun altitude
Rises 00:10:05 0° 292° (WNW) 2,767 11.3 -0.4°
Reaches altitude 10° 00:12:31 10° 300° (WNW) 1,834 10.2 -0.8°
Maximum altitude 00:16:27 39° 11° (N) 800 7.5 -1.5°
Drops below altitude 10° 00:20:09 10° 81° (E) 1,733 8.7 -2.1°
Enters shadow 00:21:49 - 88° (E) 2,365 9.4 -2.4°
Sets 00:22:23 0° 90° (E) 2,593 - -2.5°
